******************************************************************************* JPL/HORIZONS 367789 (2011 AG5) 2025-Dec-12 17:55:51 Rec #: 367789 (+COV) Soln.date: 2025-Jun-25_06:55:13 # obs: 446 (2008-2023) IAU76/J2000 helio. ecliptic osc. elements (au, days, deg., period=Julian yrs): EPOCH= 2456723.5 ! 2014-Mar-07.00 (TDB) Residual RMS= .21697 EC= .390259878563383 QR= .872353750480188 TP= 2456894.9097120292 OM= 135.6855817048511 W= 53.52243443990812 IN= 3.680515008958772 A= 1.430697636273013 MA= 261.2771442363212 ADIST= 1.989041522065839 PER= 1.71132 N= .575946687 ANGMOM= .018944177 DAN= .9844000000000001 DDN= 1.57919 L= 189.15145 B= 2.9587441 MOID= .00036719 TP= 2014-Aug-25.4097120292 Asteroid physical parameters (km, seconds, rotational period in hours): GM= n.a. RAD= n.a. ROTPER= 9.4357 H= 21.77 G= .150 B-V= n.a. ALBEDO= n.a. STYP= n.a. ASTEROID comments: 1: soln ref.= JPL#91, PHA OCC=0 radar( 4 delay, 2 Dop.) 2: source=ORB ******************************************************************************* ******************************************************************************* Ephemeris / WWW_USER Fri Dec 12 17:55:51 2025 Pasadena, USA / Horizons ******************************************************************************* Target body name: 367789 (2011 AG5) {source: JPL#91} Center body name: Earth (399) {source: DE441} Center-site name: GEOCENTRIC ******************************************************************************* Start time : A.D. 2023-Feb-03 08:51:00.0000 UT Stop time : A.D. 2023-Feb-04 00:00:00.0000 UT Step-size : 1440 minutes ******************************************************************************* Target pole/equ : undefined Target radii : undefined Center geodetic : 0.0, 0.0, -6378.137 {E-lon(deg),Lat(deg),Alt(km)} Center cylindric: 0.0, 0.0, 0.0 {E-lon(deg),Dxy(km),Dz(km)} Center pole/equ : ITRF93 {East-longitude positive} Center radii : 6378.137, 6378.137, 6356.752 km {Equator_a, b, pole_c} Target primary : Sun Vis. interferer : MOON (R_eq= 1737.400) km {source: DE441} Rel. light bend : Sun {source: DE441} Rel. lght bnd GM: 1.3271E+11 km^3/s^2 Small-body perts: Yes {source: SB441-N16} Atmos refraction: NO (AIRLESS) RA format : HMS Time format : CAL Calendar mode : Mixed Julian/Gregorian EOP file : eop.251212.p260310 EOP coverage : DATA-BASED 1962-JAN-20 TO 2025-DEC-12. PREDICTS-> 2026-MAR-09 Units conversion: 1 au= 149597870.700 km, c= 299792.458 km/s, 1 day= 86400.0 s Table cut-offs 1: Elevation (-90.0deg=NO ),Airmass (>38.000=NO), Daylight (NO ) Table cut-offs 2: Solar elongation ( 0.0,180.0=NO ),Local Hour Angle( 0.0=NO ) Table cut-offs 3: RA/DEC angular rate ( 0.0=NO ) ******************************************************************************* Initial IAU76/J2000 heliocentric ecliptic osculating elements (au, days, deg.): EPOCH= 2456723.5 ! 2014-Mar-07.00 (TDB) Residual RMS= .21697 EC= .390259878563383 QR= .872353750480188 TP= 2456894.9097120292 OM= 135.6855817048511 W= 53.52243443990812 IN= 3.680515008958772 Equivalent ICRF heliocentric cartesian coordinates (au, au/d): X= 1.034852088752075E+00 Y= 1.272066897091055E+00 Z= 4.336212015645907E-01 VX=-1.137575563888942E-02 VY= 3.112028871106080E-03 VZ= 1.728675757381291E-03 Asteroid physical parameters (km, seconds, rotational period in hours): GM= n.a. RAD= n.a. ROTPER= 9.4357 H= 21.77 G= .150 B-V= n.a. ALBEDO= n.a. STYP= n.a. ******************************************************************************* Date__(UT)__HR:MN delta deldot RNG_3sigma RNGRT_3sig ************************************************************************** $$SOE 2023-Feb-03 08:51 0.01214406557627 0.0047148 0.4386 0.0000018 $$EOE ******************************************************************************* Column meaning: TIME Times PRIOR to 1962 are UT1, a mean-solar time closely related to the prior but now-deprecated GMT. Times AFTER 1962 are in UTC, the current civil or "wall-clock" time-scale. UTC is kept within 0.9 seconds of UT1 using integer leap-seconds for 1972 and later years. Conversion from the internal Barycentric Dynamical Time (TDB) of solar system dynamics to the non-uniform civil UT time-scale requested for output has not been determined for UTC times after the next July or January 1st. Therefore, the last known leap-second is used as a constant over future intervals. Time tags refer to the UT time-scale conversion from TDB on Earth regardless of observer location within the solar system, although clock rates may differ due to the local gravity field and no analog to "UT" may be defined for that location. Any 'b' symbol in the 1st-column denotes a B.C. date. First-column blank (" ") denotes an A.D. date. CALENDAR SYSTEM Mixed calendar mode was active such that calendar dates after AD 1582-Oct-15 (if any) are in the modern Gregorian system. Dates prior to 1582-Oct-5 (if any) are in the Julian calendar system, which is automatically extended for dates prior to its adoption on 45-Jan-1 BC. The Julian calendar is useful for matching historical dates. The Gregorian calendar more accurately corresponds to the Earth's orbital motion and seasons. A "Gregorian-only" calendar mode is available if such physical events are the primary interest. NOTE: "n.a." in output means quantity "not available" at the print-time. STATISTICAL UNCERTAINTIES Output includes formal +/- 3 standard-deviation statistical orbit uncertainty quantities. There is a 99.7% (1-D) or 98.9% (2-D) chance the actual value is within given bounds. These statistical calculations assume observational data errors are random. If there are systematic biases (such as timing, reduction or star-catalog errors), results can be optimistic. Because the epoch covariance is mapped using linearized variational partial derivatives, results can also be optimistic for times far from the solution epoch, particularly for objects having close planetary encounters. 'delta deldot' = Apparent range ("delta", light-time aberrated) and range-rate ("delta-dot") of the target center relative to the observer. A positive "deldot" means the target center is moving away from the observer, negative indicates movement toward the observer. Units: AU and KM/S 'RNG_3sigma RNGRT_3sig' = Range and range rate (radial velocity) formal 3-standard-deviation uncertainties. Units: KM, KM/S Computations by ... Solar System Dynamics Group, Horizons On-Line Ephemeris System 4800 Oak Grove Drive, Jet Propulsion Laboratory Pasadena, CA 91109 USA General site: https://ssd.jpl.nasa.gov/ Mailing list: https://ssd.jpl.nasa.gov/email_list.html System news : https://ssd.jpl.nasa.gov/horizons/news.html User Guide : https://ssd.jpl.nasa.gov/horizons/manual.html Connect : browser https://ssd.jpl.nasa.gov/horizons/app.html#/x API https://ssd-api.jpl.nasa.gov/doc/horizons.html command-line telnet ssd.jpl.nasa.gov 6775 e-mail/batch https://ssd.jpl.nasa.gov/ftp/ssd/horizons_batch.txt scripts https://ssd.jpl.nasa.gov/ftp/ssd/SCRIPTS Author : Jon.D.Giorgini@jpl.nasa.gov ******************************************************************************* !$$SOF COMMAND = '2011 AG5' QUANTITIES = '20,39' START_TIME = '2023-02-03 08:51' STEP_SIZE = '1 day' STOP_TIME = '2023-02-04'